#timestamp,LO_Frequency,Hit,StdDev 
1549324815.8,286047000.8,N
1549324835.6,286047000.8,N
1549324855.4,286047000.8,N
1549324875.3,286047002.2,N
1549324895.1,286047003.9,Y
1549324915.9,286047003.2,P
1549324935.7,286047002.7,N
1549324955.5,286046999.9,N
1549324975.4,286047000.8,N
1549324995.2,286046998.4,N
1549325015.0,286046999.4,N
1549325016.0,286046999.4,N
1549325035.8,286046998.5,N
1549325055.6,286047000.8,N
1549325075.5,286046998.7,N
1549325095.3,286046998.4,N
1549325115.1,286046998.4,N
1549325135.9,286047000.8,N
1549325155.7,286047000.1,N
1549325175.6,286047000.4,N
1549325195.4,286046998.9,N
1549325215.2,286046999.1,N
1549325235.1,286047001.1,N
1549325236.0,286047001.1,N
1549325255.8,286047001.0,N
1549325275.7,286046998.6,N
1549325295.5,286046998.5,N
1549325315.3,286047002.7,N
1549325335.2,286047003.2,N
1549325355.0,286047003.5,N
1549325355.9,286047003.5,N
1549325375.7,286047002.9,N
1549325395.6,286047002.9,N
1549325415.4,286047004.4,N
1549325435.3,286047001.9,N
1549325455.1,286047000.9,N
1549325456.0,286047000.9,N
1549325475.8,286047000.9,N
1549325495.7,286047000.5,N
1549325515.5,286047000.9,N
1549325535.3,286047003.9,N
1549325555.2,286047003.2,N
1549325575.0,286047000.6,N
1549325575.9,286047000.6,N
1549325595.8,286047000.8,N
1549325615.6,286047000.9,N
1549325635.4,286046999.8,N
1549325655.3,286047000.5,N
1549325675.7,286046999.8,N
1549325695.5,286046999.8,N
1549325715.4,286046999.8,N
1549325735.2,286046999.7,N
1549325755.0,286047000.3,N
1549325755.9,286047000.3,N
1549325775.8,286047002.3,N
1549325795.6,286047002.3,N
1549325815.4,286047002.5,N
1549325835.3,286047001.6,N
1549325855.1,286047002.0,N
1549325875.9,286047001.5,N
1549325895.7,286047003.5,N
1549325915.5,286047005.3,Y
1549325935.4,286047003.6,P
1549325955.2,286047002.3,N
1549325975.1,286047003.8,P
1549325976.0,286047003.8,Y
1549325995.8,286046998.3,P
1549326015.6,286047000.1,N
1549326035.5,286046998.6,N
1549326055.3,286046997.4,N
1549326075.1,286046995.6,N
1549326095.9,286046995.5,N
1549326115.7,286046995.7,N
1549326135.6,286046995.3,N
1549326155.4,286046997.8,N
1549326175.2,286046997.6,N
1549326195.1,286046997.6,N
1549326196.0,286046997.6,N
1549326215.8,286046997.2,N
1549326235.6,286046995.3,N
1549326255.5,286046995.2,N
1549326275.3,286046995.0,N
1549326295.2,286046997.7,N
1549326315.9,286046999.8,N
1549326335.7,286047002.3,N
1549326355.6,286047000.3,N
1549326375.4,286047000.6,N
1549326395.2,286046999.6,N
1549326415.1,286046996.5,N
1549326416.0,286046996.5,N
1549326435.8,286046999.1,N
1549326455.7,286046997.5,N
1549326475.5,286046997.5,N
1549326495.3,286046997.6,N
1549326515.5,286046995.8,N
1549326535.3,286046997.3,N
1549326555.2,286046996.9,N
1549326575.0,286046996.8,N
1549326575.9,286046996.8,N
1549326595.8,286046996.8,N
1549326615.6,286046997.9,N
1549326635.4,286046995.8,N
1549326655.3,286046998.0,N
1549326675.1,286047000.5,N
1549326695.9,286046998.0,N
1549326715.7,286046995.2,N
1549326735.5,286046995.1,N
1549326755.4,286046995.4,N
1549326775.2,286046994.9,N
1549326795.0,286046995.3,N
1549326795.9,286046995.3,N
1549326815.8,286046997.9,N
1549326835.6,286046997.5,N
1549326855.5,286046995.2,N
1549326875.3,286046997.2,N
1549326895.1,286046996.5,N
1549326915.9,286047000.8,N
1549326935.7,286047002.1,N
1549326955.5,286047000.9,N
1549326975.4,286046998.7,N
1549326995.2,286046995.4,N
1549327015.1,286046997.6,N
1549327035.3,286046996.9,N
1549327055.1,286046997.0,N
1549327075.9,286046999.4,N
1549327095.8,286046999.3,N
1549327115.7,286046997.1,N
1549327135.5,286046996.5,N
1549327155.4,286046997.2,N
1549327175.2,286046996.8,N
1549327195.0,286046999.2,N
1549327195.9,286046999.2,N
1549327215.8,286046999.1,N
1549327235.6,286046999.2,N
1549327255.4,286046999.3,N
1549327275.3,286046996.5,N
1549327295.1,286046999.0,N
1549327315.9,286046998.4,N
1549327335.7,286046996.5,N
1549327355.5,286047000.8,N
1549327375.4,286046999.6,N
1549327395.2,286046996.9,N
1549327415.0,286046997.3,N
1549327435.7,286046999.4,N
1549327455.5,286047001.9,N
1549327475.4,286047000.7,N
1549327495.2,286046996.9,N
1549327515.0,286046997.5,N
1549327515.9,286046997.5,N
1549327535.8,286046995.3,Y
1549327555.6,286046996.7,P
1549327575.5,286046997.3,P
1549327595.3,286046996.7,P
1549327615.1,286046995.2,Y
1549327635.9,286046999.2,P
1549327655.7,286047000.9,N
1549327675.5,286047000.0,N
1549327695.4,286047000.5,N
1549327715.2,286047000.1,N
1549327735.1,286047002.2,N
1549327736.0,286047002.2,N
1549327755.8,286047002.8,N
1549327775.7,286047001.8,N
1549327795.6,286047002.5,N
1549327815.4,286047002.3,N
1549327835.2,286047003.9,N
1549327855.1,286047004.4,N
1549327856.0,286047004.4,N
1549327875.8,286047002.0,N
1549327895.7,286047000.5,N
1549327915.5,286047000.8,N
1549327935.3,286046999.8,N
1549327955.2,286047003.9,N
1549327975.9,286047001.8,N
1549327995.7,286047004.0,N
1549328015.6,286047006.0,Y
1549328035.4,286047005.7,P
1549328055.3,286047002.9,N
1549328075.1,286047007.3,P
1549328076.0,286047007.3,Y
1549328095.8,286047001.3,P
1549328115.7,286046999.9,N
1549328135.5,286047002.3,N
1549328155.4,286046999.1,N
1549328175.2,286047000.4,N
1549328195.0,286047001.2,N
1549328195.9,286047001.2,N
1549328215.8,286046998.5,N
1549328235.6,286046996.6,N
1549328255.4,286046997.4,N
1549328275.3,286046999.0,N
1549328295.1,286046998.5,N
1549328315.9,286046998.8,N
1549328335.7,286047000.4,N
1549328355.5,286046998.9,N
1549328375.4,286046999.1,N
1549328395.2,286046996.9,N
